Flag for Poland Weather past 2 weeks in Wroclaw, Poland

Now
57 °F

Light rain. Passing clouds.


Feels Like: 56 °F
Forecast: 44 / 54 °F
Wind: 7 mph from West

Location: Wroclaw Ii

Current Time: Sep 22, 2014 at 4:15:08 AM

Latest Report: Sep 22, 2014 at 3:30 AM


Visibility: N/A

Pressure: 29.80 "Hg

Humidity: 88%

Dew point: 54 °F

Location of WroclawLocation

Historic Weather in Wroclaw — Graph

°F

Wroclaw temperature yesterday

Maximum temperature yesterday: 72 °F (at 1:30 PM)
Minimum temperature yesterday: 61 °F (at 9:00 PM)
Average temperature yesterday: 66 °F

Past Weeks' High & Low Weather Summary

 TemperatureHumidityPressure
High82 °F (Sep 7, 3:00 PM)94% (Sep 7, 3:30 AM)30.15 "Hg (Sep 7, 3:30 AM)
Low52 °F (Sep 18, 5:30 AM)42% (Sep 7, 4:30 PM)29.77 "Hg (Sep 21, 11:30 PM)
Average64 °F80%30.01 "Hg
* Reported Sep 7 3:00 AM — Sep 22 3:00 AM, Wroclaw, Weather by CustomWeather, © 2014

Note: Actual official high and low records may vary slightly from our data, if they occured in-between our weather recording intervals... More about our weather records

Advertising

Wroclaw weather history for previous 24 hours

 ConditionsComfort  
Time TempWeatherWind HumidityBarometerVisibility
3:00 AM
Sep 22
57 °FLight rain. Passing clouds.10 mph88%29.80 "HgN/A
2:00 AM55 °FSprinkles. Passing clouds.12 mph88%29.80 "HgN/A
1:30 AM55 °FRain showers. Partly cloudy.20 mph94%29.80 "Hg4 mi
1:00 AM61 °FLight rain. Partly cloudy.10 mph88%29.77 "HgN/A
12:30 AM61 °FLight rain. Passing clouds.7 mph88%29.77 "HgN/A
12:00 AM61 °FLight rain. Passing clouds.7 mph88%29.77 "HgN/A
11:30 PM
Sep 21
61 °FPartly cloudy.7 mph88%29.77 "HgN/A
11:00 PM61 °FPassing clouds.5 mph88%29.80 "HgN/A
10:30 PM61 °FLight rain. Clear.6 mph88%29.80 "HgN/A
10:00 PM61 °FLight rain. Passing clouds.7 mph88%29.80 "HgN/A
9:30 PM61 °FLight rain. Passing clouds.7 mph88%29.80 "HgN/A
9:00 PM61 °FLight rain. Passing clouds.10 mph88%29.80 "HgN/A
8:30 PM64 °FLight rain. Passing clouds.12 mph88%29.80 "HgN/A
8:00 PM64 °FLight rain. Clear.6 mph88%29.80 "HgN/A
7:30 PM66 °FPassing clouds.8 mph83%29.80 "HgN/A
7:00 PM66 °FPassing clouds.7 mph83%29.80 "HgN/A
6:30 PM68 °FPassing clouds.3 mph73%29.80 "HgN/A
6:00 PM68 °FPassing clouds.5 mph73%29.80 "HgN/A
5:30 PM70 °FPassing clouds.5 mph69%29.80 "HgN/A
5:00 PM70 °FPassing clouds.5 mph69%29.80 "HgN/A
4:30 PM70 °FPassing clouds.7 mph69%29.80 "HgN/A
4:00 PM70 °FPassing clouds.9 mph69%29.80 "HgN/A
3:30 PM70 °FPassing clouds.13 mph73%29.83 "HgN/A
3:00 PM72 °FPassing clouds.14 mph65%29.83 "HgN/A
2:30 PM72 °FPassing clouds.15 mph65%29.83 "HgN/A
2:00 PM72 °FPassing clouds.14 mph65%29.83 "HgN/A
1:30 PM72 °FPassing clouds.12 mph69%29.83 "HgN/A
1:00 PM70 °FPassing clouds.13 mph73%29.86 "HgN/A
12:30 PM70 °FScattered clouds.14 mph73%29.86 "HgN/A
12:00 PM68 °FScattered clouds.12 mph78%29.86 "HgN/A
11:30 AM68 °FScattered clouds.9 mph83%29.86 "HgN/A
11:00 AM66 °FPartly sunny.9 mph88%29.86 "Hg5 mi
10:30 AM66 °FPartly sunny.9 mph88%29.86 "Hg5 mi
10:00 AM66 °FFog.9 mph88%29.86 "Hg3 mi
9:30 AM64 °FFog.7 mph88%29.86 "Hg2 mi
9:00 AM64 °FFog.8 mph88%29.86 "Hg2 mi
8:30 AM64 °FFog.7 mph88%29.86 "Hg2 mi
8:00 AM64 °FFog.9 mph88%29.86 "Hg3 mi
7:30 AM64 °FFog.6 mph88%29.86 "Hg3 mi
7:00 AM64 °FOvercast.8 mph88%29.86 "Hg5 mi
6:30 AM64 °FOvercast.8 mph88%29.86 "HgN/A
6:00 AM64 °FOvercast.7 mph88%29.86 "HgN/A
5:30 AM63 °FPassing clouds.3 mph88%29.86 "HgN/A
5:00 AM63 °FPassing clouds.6 mph88%29.86 "HgN/A
4:30 AM63 °FSprinkles. Passing clouds.8 mph94%29.86 "HgN/A
4:00 AM64 °FPartly cloudy.6 mph88%29.89 "HgN/A
Weather by CustomWeather, © 2014

See weather overviewHow to use our weather pages